Showing default

COSMOS 2431 (GLONASS), 32277

Orbit data source: Space-Track

COSMOS 2431 (GLONASS), 32277 is a Commonwealth of Independent States-origin payload satellite in MEO that was launched on Fri, 26 Oct 2007 UTC via a PROTON-K/DM-2 launch vehicle from the Tyuratam Missile And Space Complex (TTMTR). Payload-class satellites include a variety of spacecraft equipped with specific instruments for various scientific and technological missions. These include communications satellites like Starlink; space stations such as the ISS; scientific satellites like the Hubble; Earth observation satellites from companies like Planet Labs, Umbra, and HawkEye 360; GPS; miniature CubeSats for education and research; and military/defense satellites.

Loading next visibility...
Identifier
32277, 2007-052C
Orbit
MEO
Country
Flag of CISCIS
Related business
Manufacturer
Resehetnev ISS
Mission
Non-operational Defense Navigation
Bus & Motor
URAGAN, Unknown motor
Mass
1,450 kg wet, ~1,200 kg dry
Launch date (UTC)
2007-10-26 (18 years ago)
Launch vehicle
PROTON-K/DM-2
Launch site
Tyuratam Missile And Space Complex (TTMTR)
Object type
Payload
Rocket body
Debris
Shape & HBR
Cyl + 1 Ant + 2 Pan, 3.9 m
Radar Cross Section
8.467 m², Large (>1 m²)

Expand to show TLE details & history
Last TLE update: 13 hours ago

TLE from 13 hours ago
0 COSMOS 2431 (GLONASS)
1 32277U 07052C   25305.58980388 -.00000004  00000-0  00000-0 0  9994
2 32277  65.7165 323.5164 0015626 181.7184 356.3771  2.13209016140367
Epoch: 2025-11-01T14:09Z
TLE epoch observation values (Epoch: 2025-11-01T14:09:19.055Z)
Latitude
1.74447°
Longitude
-110.70568°
Altitude
19,081.986 km
Speed
3.96 km/s
True Right ascension
09h 30m 57s
True Declination
1° 44' 30"
Sunlit
Object was in daylight at epoch
Visualization orbit readout
Latitude
Unknown
Longitude
Unknown
Altitude
Unknown
Speed
Unknown
Apparent Right ascension
Unknown
Apparent Declination
Unknown
Sunlit
N/A
Visualization observer readout
Local Sidereal Time
23:06:14
Azimuth
Unknown
Elevation
Unknown
Doppler factor
Unknown
Orbital elements
Apogee altitude
19,160.786 km
Perigee altitude
19,081.097 km
Semi-major axis
25,499.078 km
Eccentricity
0.00156
Inclination
65.7165°
RAAN
323.5164°
Arg. of periapsis
181.7184°
True anomaly
356.36576°
Mean anomaly
356.3771°
Eccentric anomaly
356.37143°
Mean motion
0.53304 °/min
Orbital period
675.38 mins
BSTAR
0
Loading maneuver chart data...
Computing Atmospheric mass density...
Loading historical data...
Loading historical data...
Loading historical data...
Loading historical data...
Loading historical data...
Loading historical data...
Loading historical data...

Documentation

Showing up to 5 results
|